Hourly Data Report for October 06, 2013

All times are specified in Local Standard Time (LST). Add 1 hour to adjust for Daylight Saving Time where and when it is observed.

FREDERICTON
NEW BRUNSWICK

45°52'08.000" N
66°32'14.000" W
20.70 m
8101505
71700
YFC

Download Data

Hourly Data (October 2013)
Hourly Data Report for October 6, 2013
Temp Definition
°C
Dew Point Temp Definition
°C
Rel Hum Definition
%
Wind Dir Definition
10's deg

Wind Spd Definition
km/h
Visibility Definition
km
Stn Press Definition
kPa
Hmdx Definition


Wind Chill Definition


Weather Definition


TIME
00:00 Legend Double Dagger 3.4 1.8 89 28 5 16.1 101.89     LegendNANA
01:00 Legend Double Dagger 3.1 1.2 87 29 8 16.1 101.95     LegendNANA
02:00 Legend Double Dagger 4.6 0.8 76 32 13 16.1 101.96     LegendNANA
03:00 Legend Double Dagger 4.1 0.8 79 31 11 16.1 102.00     LegendNANA
04:00 Legend Double Dagger 4.3 0.9 78 32 11 16.1 102.00     LegendNANA
05:00 Legend Double Dagger 4.3 1.2 80 34 11 16.1 102.02     LegendNANA
06:00 Legend Double Dagger 2.9 0.6 85 32 8 16.1 102.08     LegendNANA
07:00 Legend Double Dagger 2.7 0.7 87   0 16.1 102.16     LegendNANA
08:00 Legend Double Dagger 4.8 1.5 79 LegendMM 4 16.1 102.19     LegendNANA
09:00 Legend Double Dagger 7.5 1.4 65 33 8 16.1 102.22     LegendNANA
10:00 Legend Double Dagger 10.2 1.3 54 32 9 16.1 102.26     LegendNANA
11:00 Legend Double Dagger 12.0 -0.2 43 LegendMM 4 16.1 102.27     LegendNANA
12:00 Legend Double Dagger 13.6 -1.6 35 31 11 16.1 102.23     LegendNANA
13:00 Legend Double Dagger 13.9 -1.5 34 LegendMM 4 16.1 102.17     LegendNANA
14:00 Legend Double Dagger 14.6 -1.7 32 LegendMM 5 16.1 102.15     LegendNANA
15:00 Legend Double Dagger 14.9 -2.1 31 3 8 16.1 102.13     LegendNANA
16:00 Legend Double Dagger 14.8 -2.0 31   0 16.1 102.15     LegendNANA
17:00 Legend Double Dagger 14.2 -0.4 37 17 4 16.1 102.15     LegendNANA
18:00 Legend Double Dagger 10.7 3.5 61 14 5 16.1 102.20     LegendNANA
19:00 Legend Double Dagger 9.0 2.8 65 12 8 16.1 102.24     LegendNANA
20:00 Legend Double Dagger 6.7 3.6 81 23 5 16.1 102.26     LegendNANA
21:00 Legend Double Dagger 6.4 3.2 80 20 8 16.1 102.26     LegendNANA
22:00 Legend Double Dagger 5.8 3.5 85   0 16.1 102.29     LegendNANA
23:00 Legend Double Dagger 6.5 3.9 83   0 16.1 102.26     LegendNANA

Notes on Data Quality.

Legend

  • E = Estimated
  • M = Missing
  • NA = Not Available
  • ‡ = Partner data that is not subject to review by the National Climate Archives
Date modified: